Regional Weather Roundup
Issued by NWS San Diego, CA

Home | Current Version | Previous Version | Text Only | Print | Product List | Glossary On
Versions: 1 2 3 4 5 6 7 8 9 10 11 12 13 14 15 16 17 18 19 20 21 22 23 24 25 26 27
000
ASUS46 KSGX 041811
RWRSGX

SAN DIEGO HOURLY WEATHER ROUNDUP
NATIONAL WEATHER SERVICE SAN DIEGO CA
1000 AM PST SUN DEC 04 2016

NOTE: "FAIR" INDICATES FEW OR NO CLOUDS BELOW 12,000 FEET WITH NO
SIGNIFICANT WEATHER AND/OR OBSTRUCTIONS TO VISIBILITY.

CAZ042-043-060-061-PZZ750-775-041900-

GREATER SAN DIEGO AREA

CITY           SKY/WX    TMP DP  RH WIND       PRES   REMARKS
SAN DIEGO AP   SUNNY     63  28  26 CALM      30.09F
NATIONAL CITY    N/A     65  35  32 CALM      30.08F
CHULA VISTA      N/A     66  37  34 E1        30.01S
IMPERIAL BEACH SUNNY     70  28  21 NE5       30.08F
MIRAMAR MCAS   SUNNY     73  21  14 SE3       30.08S
MONTGOMERY FLD SUNNY     67  20  16 CALM      30.08F

$$

NORTH SAN DIEGO COUNTY

CITY           SKY/WX    TMP DP  RH WIND       PRES   REMARKS
CAMP PENDLETON SUNNY     61  32  33 CALM      30.09S
OCEANSIDE AP   SUNNY     61  32  33 CALM      30.08F
OCEANSIDE HBR    N/A     63  31  29 CALM      30.11S
VISTA            N/A     60  33  35 CALM      30.07F
CARLSBAD       SUNNY     65  27  23 CALM      30.08S
DEL MAR          N/A     64  36  35 CALM      30.11S
LA JOLLA SCRIP   N/A     63  29  28 W2        30.08F
FALLBROOK        N/A     63  38  38 CALM      30.07S
ESCONDIDO        N/A     62  34  34 CALM      30.11S
SAN MARCOS       N/A     67  28  23 E2        30.11S
POWAY            N/A     63  37  38 CALM      30.11F

$$

EAST SAN DIEGO COUNTY

CITY           SKY/WX    TMP DP  RH WIND       PRES   REMARKS
RAMONA         SUNNY     68  26  20 CALM      30.10S
SANTEE LAKES     N/A     58  36  45 CALM      30.09F
LA MESA          N/A     65  28  25 CALM      30.03S
JAMUL            N/A     69  29  22 CALM      30.10F
DESCANSO N       N/A     64  20  18 E2        30.05S
CAMPO            N/A     67  13  12 E16       30.07F

$$

ORANGE COUNTY AND THE LOS ANGELES BASIN

CITY           SKY/WX    TMP DP  RH WIND       PRES   REMARKS
JOHN WAYNE AP  SUNNY     62  42  47 CALM      30.09S
LAGUNA BEACH     N/A     61  41  47 NW2       30.05R
LAKE FOREST FR   N/A     63  20  19 CALM      29.98S
HUNTINGTON BCH   N/A     66  50  57 CALM      30.10F
LOS ALAMITOS   SUNNY     61  44  52 S3        30.08S
FULLERTON      SUNNY     62  36  37 CALM      30.08S
LONG BEACH     SUNNY     62  45  53 E3        30.09S
L.A. AP        MOSUNNY   62  45  53 SE5       30.09R
L.A. DOWNTOWN  SUNNY     62  37  39 S3        30.08

$$

THE INLAND EMPIRE

CITY           SKY/WX    TMP DP  RH WIND       PRES   REMARKS
CORONA         SUNNY     59  27  29 CALM      30.10S
CHINO          SUNNY     60  30  32 CALM      30.10F
ONTARIO        MOSUNNY   60  25  26 CALM      30.09S
SAN BERNARDINO SUNNY    N/A N/A N/A CALM      30.10S
RIVERSIDE AP   SUNNY     63  30  28 CALM      30.09F
MORENO VALLEY    N/A     66  38  35 S1        28.21R
MARCH ARB      SUNNY     56  27  33 CALM      30.09F
HORSETHIEF CYN   N/A     66  20  17 S1        30.12F
PERRIS           N/A     58  32  36 S1        30.13F
HEMET EAST       N/A     64  20  19 CALM      30.15S
FRENCH VALLEY  NOT AVBL
TEMECULA         N/A     53  37  55 CALM      30.15F

$$

SAN BERNARDINO AND RIVERSIDE COUNTY MOUNTAINS

CITY           SKY/WX    TMP DP  RH WIND       PRES   REMARKS
BIG BEAR AP    SUNNY     50  12  22 CALM      30.25F
ANGELUS OAKS     N/A     47  28  48 CALM      30.09S
PINE COVE        N/A     56  18  23 N3        30.13S

$$

SOUTHERN DESERT INCLUDING THE COACHELLA VALLEY

CITY           SKY/WX    TMP DP  RH WIND       PRES   REMARKS
PALM SPRINGS   SUNNY     65  23  20 SE5       30.11S
PALM DESERT      N/A     66  30  25 CALM      26.88S
THERMAL        SUNNY     64  22  20 CALM      30.09S
BLYTHE         SUNNY     60  20  21 E5        30.12S
IMPERIAL AP    SUNNY     65  22  19 W6        30.10S
EL CENTRO NAS  SUNNY     66  15  14 VRB3      30.12S
YUMA AZ        SUNNY     67  15  13 N12       30.09F
MEXICALI       SUNNY     64  12  13 NW3       30.11S

$$

UPPER DESERT

CITY           SKY/WX    TMP DP  RH WIND       PRES   REMARKS
VICTORVILLE AP   N/A     52  12  20 CALM      30.17R
HESPERIA         N/A     54  19  25 SE3       30.35S
PALMDALE       SUNNY     49  16  26 E5        30.18S
LANCASTER      SUNNY     46  15  28 E3        30.18F
EDWARDS AFB    SUNNY     41  11  28 E5        30.16F
DAGGETT        SUNNY     52   7  16 W8        30.17S
29 PALMS N     SUNNY     54  14  20 CALM      30.22F
NEEDLES        SUNNY     62  18  18 N12       30.14F

$$

REGIONAL REPORTS

CITY           SKY/WX    TMP DP  RH WIND       PRES   REMARKS
SANTA BARBARA  SUNNY     64  42  44 SE3       30.08S
SANDBERG       SUNNY     63  11  13 NE6       30.20S
LAS VEGAS NV   MOSUNNY   53  13  20 CALM      30.19F
PHOENIX AZ     MOSUNNY   61  18  18 NE5       30.07F
TIJUANA        SUNNY     68  18  14 CALM      30.10S
ENSENADA NW      N/A     68  32  26 SW2       30.04S

$$

OFFSHORE ISLANDS

CITY           SKY/WX    TMP DP  RH WIND       PRES   REMARKS
CATALINA ARPT  SUNNY     69  21  16 NE5       30.11R
SAN NICOLAS IS SUNNY     65  31  28 NW9       30.09R

$$

MARINE AND OFFSHORE BUOY REPORTS

STATION/POSITION SKY/WX   TEMP    WIND        PRES    SWELL
                          AIR SEA DIR/SP/G            HT/PER/DIR
                          (F)     (DEG/KT/KT) (MB)    (FT/S/D)
TANNER BANKS               60 62  320/ 14/ 17 1018.7    8/310/17
S CLEMENTE BASIN           62 62   CALM  /  2 1018.8R   5/280/17
SAN NICOLAS IS.               59                N/A     8/310/18
SO. S. ROSA ISLA           58 59  320/ 16/ 19 1018.4   10/310/17
W. S. BARBARA CH           58 58  310/ 14/ 16 1019.1R  11/310/16
M. S. BARBARA CH                  220/  4/  6 1019.1R
S. MONICA BASIN            60 60   60/  2/  4 1018.6R   3/350/17
S PEDRO CHANNEL               61                N/A     2/270/18
CMP PENDLETON NS              60                N/A     2/210/14
OCEANSIDE OFFSHR              61                N/A     2/250/18
TORREY PINES OTR              62                N/A     3/270/18
POINT LOMA SOUTH              62                N/A     3/290/18

$$





USA.gov is the U.S. government's official web portal to all federal, state and local government web resources and services.